GW6829 Weather Reports


Display with metric or nautical units.
time (UTC)temp
F
wind
direction
speed
MPH
gust
MPH
rain 1hr
in
rain 24hr
in
rain mn
in
humidity
%
barometer
mb
20260505230530 46 26 4.0 9.0 0.00 0.00 0.00 95 1008.5
20260505230028 46 350 5.0 10.0 0.00 0.00 0.00 95 1008.4
20260505225529 46 7 3.0 10.0 0.00 0.00 0.00 95 1008.2
20260505225028 46 349 4.0 11.0 0.00 0.00 0.00 95 1008.2
20260505224528 46 7 4.0 13.0 0.00 0.00 0.00 95 1008.2
20260505224028 46 25 6.0 13.0 0.00 0.00 0.00 95 1008.0
20260505223528 47 345 3.0 9.0 0.00 0.00 0.00 95 1008.1
20260505223029 47 8 4.0 8.0 0.00 0.00 0.00 95 1007.8
20260505222528 47 0 4.0 9.0 0.00 0.00 0.00 95 1008.1
20260505222029 47 18 4.0 8.0 0.00 0.00 0.00 95 1008.2
20260505221529 47 2 2.0 10.0 0.00 0.00 0.00 95 1008.4
20260505221030 47 355 4.0 6.0 0.00 0.00 0.00 95 1008.4
20260505220528 47 356 3.0 8.0 0.00 0.00 0.00 94 1008.4
20260505220028 47 354 4.0 10.0 0.00 0.00 0.00 94 1008.1
20260505215529 47 17 5.0 13.0 0.00 0.00 0.00 94 1007.9
20260505215028 48 17 5.0 11.0 0.00 0.00 0.00 94 1007.7
20260505214531 48 346 6.0 10.0 0.00 0.00 0.00 94 1007.9
20260505214029 49 17 6.0 10.0 0.00 0.00 0.00 94 1007.8
20260505213528 49 7 5.0 9.0 0.00 0.00 0.00 94 1007.9
20260505213029 49 348 4.0 11.0 0.00 0.00 0.00 94 1007.9
20260505212529 49 5 3.0 9.0 0.00 0.00 0.00 94 1007.9
20260505212030 49 14 4.0 9.0 0.00 0.00 0.00 94 1007.7
20260505211528 49 21 5.0 9.0 0.00 0.00 0.00 94 1007.9
20260505211031 49 352 2.0 9.0 0.00 0.00 0.00 94 1007.9
20260505210531 49 13 4.0 9.0 0.00 0.00 0.00 94 1007.8
20260505210030 50 2 5.0 10.0 0.00 0.00 0.00 94 1007.9
20260505205529 50 5 3.0 8.0 0.00 0.00 0.00 94 1007.9
20260505205031 50 6 3.0 10.0 0.00 0.00 0.00 94 1007.9
20260505204530 50 11 5.0 10.0 0.00 0.00 0.00 95 1007.7
20260505204030 50 9 4.0 12.0 0.00 0.00 0.00 95 1007.7
20260505203530 50 358 6.0 11.0 0.00 0.00 0.00 95 1007.5
20260505203028 50 12 4.0 8.0 0.00 0.00 0.00 95 1007.8
20260505202531 50 11 3.0 8.0 0.00 0.00 0.00 95 1007.8
20260505202030 51 3 3.0 6.0 0.00 0.00 0.00 95 1007.9
20260505201531 51 13 4.0 7.0 0.00 0.00 0.00 95 1008.0
20260505201029 51 4 3.0 8.0 0.00 0.00 0.00 95 1008.0
20260505200530 51 348 4.0 9.0 0.00 0.00 0.00 95 1008.0
20260505200028 51 357 5.0 9.0 0.00 0.00 0.00 95 1007.5
20260505195531 51 6 3.0 9.0 0.00 0.00 0.00 95 1007.2
20260505195028 51 14 5.0 11.0 0.00 0.00 0.00 95 1007.1
20260505194528 51 20 5.0 10.0 0.00 0.00 0.00 95 1007.1
20260505194030 51 21 6.0 10.0 0.00 0.00 0.00 95 1007.2
20260505193530 51 355 4.0 10.0 0.00 0.00 0.00 95 1007.1
20260505193029 52 5 5.0 8.0 0.00 0.00 0.00 95 1007.2
20260505192530 52 6 4.0 10.0 0.00 0.00 0.00 95 1007.4
20260505192029 52 25 5.0 10.0 0.00 0.00 0.00 95 1007.5
20260505191529 52 354 3.0 9.0 0.00 0.00 0.00 95 1008.0
20260505191031 52 347 3.0 7.0 0.00 0.00 0.00 95 1007.9
20260505190531 52 9 4.0 9.0 0.00 0.00 0.00 95 1007.7
20260505190031 52 11 4.0 8.0 0.00 0.00 0.00 95 1007.5
20260505185530 52 12 4.0 9.0 0.00 0.00 0.00 95 1007.5
20260505185037 52 10 2.0 8.0 0.00 0.00 0.00 94 1007.4
20260505184529 52 12 3.0 9.0 0.00 0.00 0.00 94 1007.3
20260505184028 52 8 5.0 9.0 0.00 0.00 0.00 94 1007.1
20260505183531 53 13 4.0 9.0 0.00 0.00 0.00 94 1006.9
20260505183029 53 13 6.0 9.0 0.00 0.00 0.00 94 1007.0
20260505182531 53 3 4.0 9.0 0.00 0.00 0.00 93 1007.3
20260505182034 53 22 3.0 7.0 0.00 0.00 0.00 93 1007.3
20260505181531 53 28 4.0 9.0 0.00 0.00 0.00 93 1007.2
20260505181030 54 7 5.0 9.0 0.00 0.00 0.00 93 1007.2
20260505180532 54 354 4.0 9.0 0.00 0.00 0.00 93 1007.3
20260505180028 54 11 5.0 8.0 0.00 0.00 0.00 92 1007.2
20260505175531 54 11 4.0 8.0 0.00 0.00 0.00 92 1007.2
20260505175029 54 351 1.0 9.0 0.00 0.00 0.00 92 1007.3
20260505174531 55 17 5.0 10.0 0.00 0.00 0.00 92 1007.1
20260505174031 55 9 4.0 8.0 0.00 0.00 0.00 92 1007.1
20260505173531 55 13 2.0 8.0 0.00 0.00 0.00 92 1007.1
20260505173033 55 9 3.0 8.0 0.00 0.00 0.00 92 1007.1
20260505172531 55 13 4.0 8.0 0.00 0.00 0.00 92 1007.1
20260505172032 56 9 4.0 8.0 0.00 0.00 0.00 92 1007.1
20260505171531 56 341 2.0 8.0 0.00 0.00 0.00 92 1007.1
20260505171031 56 343 4.0 8.0 0.00 0.00 0.00 92 1007.1
20260505170530 56 8 4.0 9.0 0.00 0.00 0.00 92 1006.9
20260505170030 57 11 3.0 6.0 0.00 0.00 0.00 93 1007.1
20260505165529 57 14 2.0 6.0 0.00 0.00 0.00 93 1007.1
20260505165028 57 10 2.0 7.0 0.00 0.00 0.00 93 1007.0
20260505164531 57 8 2.0 6.0 0.00 0.00 0.00 93 1006.9
20260505163542 57 25 2.0 8.0 0.00 0.00 0.00 92 1006.8
20260505163033 58 28 5.0 8.0 0.00 0.00 0.00 92 1006.8
20260505162529 58 28 5.0 9.0 0.00 0.00 0.00 92 1006.8
20260505162030 58 19 4.0 8.0 0.00 0.00 0.00 92 1006.8
20260505161531 58 25 4.0 7.0 0.00 0.00 0.00 92 1006.9
20260505161030 59 12 3.0 6.0 0.00 0.00 0.00 92 1006.9
20260505160532 59 31 2.0 7.0 0.00 0.00 0.00 91 1006.8
20260505153031 63 18 3.0 6.0 0.00 0.00 0.00 89 1006.4
20260505152532 62 41 3.0 6.0 0.00 0.00 0.00 89 1006.3
20260505151530 62 39 3.0 9.0 0.00 0.00 0.00 90 1006.1
20260505151031 62 54 6.0 9.0 0.00 0.00 0.00 91 1006.1
20260505150530 61 66 2.0 8.0 0.00 0.00 0.00 92 1006.2
20260505140530 60 92 2.0 8.0 0.00 0.00 0.00 96 1006.7
20260505125030 58 14 2.0 5.0 0.00 0.00 0.00 97 1006.2
20260505124531 58 22 2.0 4.0 0.00 0.00 0.00 97 1006.3
20260505124029 58 27 2.0 3.0 0.00 0.00 0.00 97 1006.1
20260505123530 58 26 2.0 4.0 0.00 0.00 0.00 97 1006.0
20260505123030 58 4 1.0 3.0 0.00 0.00 0.00 97 1006.1
20260505122528 58 29 2.0 3.0 0.00 0.00 0.00 97 1005.9
20260505122028 58 25 2.0 3.0 0.00 0.00 0.00 97 1006.0
20260505121528 58 28 2.0 3.0 0.00 0.00 0.00 97 1005.8
20260505121031 58 18 2.0 4.0 0.00 0.00 0.00 97 1006.0
20260505120532 58 19 2.0 4.0 0.00 0.00 0.00 97 1005.9
20260505120032 58 24 2.0 3.0 0.00 0.00 0.00 96 1006.0
20260505115529 58 31 1.0 3.0 0.00 0.00 0.00 96 1005.9
20260505115029 58 336 2.0 3.0 0.00 0.00 0.00 96 1006.0
20260505114530 58 5 1.0 4.0 0.00 0.00 0.00 96 1005.8
20260505114030 58 305 2.0 7.0 0.00 0.00 0.00 96 1005.3
20260505113529 58 7 1.0 4.0 0.00 0.00 0.00 96 1005.6
20260505113031 58 162 1.0 7.0 0.00 0.00 0.00 96 1005.1
20260505112531 58 165 4.0 6.0 0.00 0.00 0.00 96 1004.9
20260505112028 58 164 4.0 8.0 0.00 0.00 0.00 96 1005.0
20260505111530 58 168 4.0 7.0 0.00 0.00 0.00 96 1004.9
20260505111028 58 163 5.0 9.0 0.00 0.00 0.00 96 1005.1
20260505110528 59 193 4.0 9.0 0.00 0.00 0.00 96 1005.0
20260505102029 59 157 5.0 12.0 0.00 0.00 0.00 95 1005.3
20260505101532 59 194 7.0 13.0 0.00 0.00 0.00 95 1005.6
20260505101028 59 188 8.0 13.0 0.00 0.00 0.00 95 1005.2
20260505100529 59 202 4.0 8.0 0.00 0.00 0.00 95 1005.1
20260505100031 59 160 5.0 9.0 0.00 0.00 0.00 95 1005.1
20260505095528 59 168 4.0 9.0 0.00 0.00 0.00 95 1005.0
20260505095030 59 147 4.0 8.0 0.00 0.00 0.00 95 1005.1
20260505094528 59 155 4.0 8.0 0.00 0.00 0.00 95 1005.5
20260505094028 59 164 4.0 7.0 0.00 0.00 0.00 95 1005.6
20260505093531 59 166 4.0 6.0 0.00 0.00 0.00 95 1005.7
20260505093031 59 144 2.0 3.0 0.00 0.00 0.00 94 1005.7
20260505092529 59 133 0.0 3.0 0.00 0.00 0.00 94 1005.9
20260505092029 59 131 2.0 4.0 0.00 0.00 0.00 94 1006.0
20260505091530 59 134 3.0 4.0 0.00 0.00 0.00 94 1006.0
20260505091028 59 44 0.0 3.0 0.00 0.00 0.00 94 1006.0
20260505090531 59 36 1.0 2.0 0.00 0.00 0.00 94 1006.1
20260505090030 59 346 1.0 2.0 0.00 0.00 0.00 94 1006.2
20260505085528 59 202 0.0 4.0 0.00 0.00 0.00 94 1006.7
20260505085030 59 275 2.0 4.0 0.00 0.00 0.00 93 1007.0
20260505084530 59 257 2.0 4.0 0.00 0.00 0.00 93 1006.8
20260505084030 59 261 4.0 4.0 0.00 0.00 0.00 93 1006.7
20260505083528 60 117 2.0 5.0 0.00 0.00 0.00 93 1005.8
20260505083029 60 175 1.0 4.0 0.00 0.00 0.00 92 1006.3
20260505082528 60 219 2.0 3.0 0.00 0.00 0.00 92 1006.2
20260505082030 60 328 0.0 2.0 0.00 0.00 0.00 92 1006.1
20260505081530 60 0 0.0 5.0 0.00 0.00 0.00 92 1006.1
20260505081028 60 227 4.0 6.0 0.00 0.00 0.00 91 1006.7
20260505080529 60 231 2.0 6.0 0.00 0.00 0.00 90 1006.7
20260505080030 60 214 4.0 7.0 0.00 0.00 0.00 90 1007.1
20260505075528 60 256 6.0 9.0 0.00 0.00 0.00 90 1007.1
20260505075029 60 245 4.0 10.0 0.00 0.00 0.00 90 1007.0
20260505074529 60 260 5.0 8.0 0.00 0.00 0.00 90 1006.9
20260505074031 60 256 4.0 5.0 0.00 0.00 0.00 89 1006.8
20260505073531 60 288 3.0 6.0 0.00 0.00 0.00 88 1007.0
20260505073028 60 250 4.0 8.0 0.00 0.00 0.00 87 1006.7
20260505072530 60 230 7.0 12.0 0.00 0.00 0.00 87 1006.9
20260505072030 60 234 6.0 10.0 0.00 0.00 0.00 86 1006.8
20260505071529 61 208 8.0 14.0 0.00 0.00 0.00 86 1006.9
20260505071036 61 208 9.0 13.0 0.00 0.00 0.00 85 1006.6
20260505070529 61 217 5.0 11.0 0.00 0.00 0.00 85 1006.5
20260505070030 61 211 6.0 12.0 0.00 0.00 0.00 83 1006.6
20260505065531 61 214 7.0 9.0 0.00 0.00 0.00 82 1006.5
20260505065028 62 210 7.0 14.0 0.00 0.00 0.00 81 1006.4
20260505064529 62 211 10.0 14.0 0.00 0.00 0.00 79 1006.2
20260505064030 62 204 11.0 14.0 0.00 0.00 0.00 79 1006.1
20260505063528 63 193 9.0 15.0 0.00 0.00 0.00 78 1005.9
20260505063030 63 196 7.0 12.0 0.00 0.00 0.00 76 1006.0
20260505062529 64 192 6.0 11.0 0.00 0.00 0.00 74 1006.1
20260505062030 64 174 7.0 10.0 0.00 0.00 0.00 74 1006.1
20260505061530 64 187 6.0 9.0 0.00 0.00 0.00 73 1006.1
20260505061029 64 152 3.0 8.0 0.00 0.00 0.00 72 1006.3
20260505060530 64 177 3.0 9.0 0.00 0.00 0.00 72 1006.4
20260505060030 64 206 3.0 10.0 0.00 0.00 0.00 71 1006.5
20260505055529 64 177 4.0 8.0 0.00 0.00 0.00 71 1006.6
20260505055028 64 165 5.0 9.0 0.00 0.00 0.00 71 1006.6
20260505054529 64 146 3.0 7.0 0.00 0.00 0.00 71 1006.6
20260505054029 65 178 2.0 7.0 0.00 0.00 0.00 71 1006.5
20260505053531 65 142 3.0 7.0 0.00 0.00 0.00 70 1006.6
20260505053031 65 162 3.0 8.0 0.00 0.00 0.00 70 1006.5
20260505052529 65 204 1.0 7.0 0.00 0.00 0.00 70 1006.6
20260505052029 65 136 3.0 5.0 0.00 0.00 0.00 70 1006.3
20260505051528 65 147 2.0 7.0 0.00 0.00 0.00 70 1006.2
20260505051029 65 39 1.0 6.0 0.00 0.00 0.00 70 1006.2
20260505050528 65 154 0.0 5.0 0.00 0.00 0.00 70 1006.3
20260505041528 66 171 3.0 8.0 0.00 0.00 0.00 68 1006.7
20260505041029 66 149 3.0 6.0 0.00 0.00 0.00 68 1006.8
20260505040528 66 159 2.0 9.0 0.00 0.00 0.00 68 1007.0
20260505040028 66 173 4.0 9.0 0.00 0.00 0.00 68 1007.1
20260505035530 66 198 5.0 9.0 0.00 0.00 0.00 67 1007.1
20260505035029 66 206 4.0 5.0 0.00 0.00 0.00 67 1007.1
20260505034528 67 185 2.0 7.0 0.00 0.00 0.00 66 1007.2
20260505034028 67 136 3.0 8.0 0.00 0.00 0.00 66 1007.2
20260505033528 67 144 5.0 10.0 0.00 0.00 0.00 66 1007.1
20260505033028 67 153 6.0 10.0 0.00 0.00 0.00 66 1007.2
20260505032528 67 157 6.0 9.0 0.00 0.00 0.00 66 1007.2
20260505032030 67 170 4.0 8.0 0.00 0.00 0.00 65 1007.2
20260505031529 67 162 4.0 7.0 0.00 0.00 0.00 65 1007.4
20260505031028 67 166 3.0 7.0 0.00 0.00 0.00 65 1007.3
20260505030529 67 172 4.0 6.0 0.00 0.00 0.00 65 1007.3
20260505030028 67 198 2.0 6.0 0.00 0.00 0.00 65 1007.2
20260505025528 67 166 3.0 6.0 0.00 0.00 0.00 65 1007.2
20260505025029 67 184 3.0 7.0 0.00 0.00 0.00 65 1007.3
20260505024528 67 145 5.0 7.0 0.00 0.00 0.00 64 1007.3
20260505024028 67 194 3.0 8.0 0.00 0.00 0.00 65 1007.2
20260505023528 68 179 4.0 6.0 0.00 0.00 0.00 64 1007.1
20260505023028 68 195 4.0 6.0 0.00 0.00 0.00 64 1007.2
20260505022528 68 179 4.0 7.0 0.00 0.00 0.00 64 1007.2
20260505022029 68 191 4.0 6.0 0.00 0.00 0.00 64 1007.1
20260505021531 68 190 3.0 6.0 0.00 0.00 0.00 63 1007.0
20260505021029 69 172 1.0 6.0 0.00 0.00 0.00 63 1007.0
20260505020529 69 191 3.0 7.0 0.00 0.00 0.00 63 1006.9
20260505020030 69 188 4.0 7.0 0.00 0.00 0.00 62 1006.8
20260505015528 69 203 5.0 9.0 0.00 0.00 0.00 62 1006.8
20260505015028 70 179 5.0 11.0 0.00 0.00 0.00 61 1006.6
20260505014529 70 207 7.0 13.0 0.00 0.00 0.00 61 1006.4
20260505014029 70 208 7.0 12.0 0.00 0.00 0.00 61 1006.4
20260505013529 70 201 9.0 17.0 0.00 0.00 0.00 60 1006.3
20260505013029 70 203 6.0 12.0 0.00 0.00 0.00 61 1006.4
20260505012531 70 202 5.0 13.0 0.00 0.00 0.00 61 1006.3
20260505012028 70 203 9.0 13.0 0.00 0.00 0.00 60 1006.3
20260505011528 70 192 9.0 12.0 0.00 0.00 0.00 60 1006.2
20260505011028 71 202 9.0 11.0 0.00 0.00 0.00 60 1006.2
20260505010529 71 199 8.0 13.0 0.00 0.00 0.00 60 1006.0
20260505010031 71 177 6.0 13.0 0.00 0.00 0.00 60 1006.0
20260505005529 72 210 7.0 13.0 0.00 0.00 0.00 59 1005.9
20260505005029 72 215 8.0 15.0 0.00 0.00 0.00 58 1005.9
20260505004529 72 195 9.0 13.0 0.00 0.00 0.00 58 1005.7
20260505004030 72 211 10.0 12.0 0.00 0.00 0.00 57 1005.7
20260505003528 72 204 8.0 10.0 0.00 0.00 0.00 57 1005.7
20260505003028 73 185 7.0 10.0 0.00 0.00 0.00 57 1005.7
20260505002528 73 196 6.0 15.0 0.00 0.00 0.00 57 1005.6
20260505002028 73 194 8.0 13.0 0.00 0.00 0.00 57 1005.6
20260505001529 73 189 6.0 14.0 0.00 0.00 0.00 56 1005.5
20260505001028 73 179 8.0 14.0 0.00 0.00 0.00 56 1005.6
20260505000529 73 189 8.0 14.0 0.00 0.00 0.00 56 1005.6
20260505000029 74 172 7.0 14.0 0.00 0.00 0.00 55 1005.6
20260504235528 74 192 9.0 14.0 0.00 0.00 0.00 55 1005.6
20260504235028 74 169 9.0 17.0 0.00 0.00 0.00 54 1005.5
20260504234529 74 193 8.0 16.0 0.00 0.00 0.00 54 1005.3
20260504234028 74 180 11.0 15.0 0.00 0.00 0.00 54 1005.5
20260504233528 74 195 10.0 16.0 0.00 0.00 0.00 54 1005.5
20260504233028 74 209 9.0 17.0 0.00 0.00 0.00 54 1005.5
20260504232528 74 181 8.0 13.0 0.00 0.00 0.00 54 1005.6
20260504232030 75 193 7.0 13.0 0.00 0.00 0.00 54 1005.6
20260504231528 75 185 9.0 12.0 0.00 0.00 0.00 53 1005.7
20260504231029 75 159 8.0 15.0 0.00 0.00 0.00 52 1005.6